Starlink 31634

operational
NORAD ID: 59330 Int'l Des: 2024-057 Owner: SPXS Country: US Constellation: starlink
LEOCIRCULAR

Über Starlink 31634

Beschreibung wird geladen...

Live-Position

3D-Globus wird geladen...

Nächste Überflüge

Höhenverlauf

Altitude vs Time

uPlot chart will show altitude changes over time

Zweizeiliger Elementsatz

1 59330U 24057L 25258.82757809 .00000243 00000-0 18340-4 0 9995
2 59330 42.9999 94.8143 0001003 256.3752 103.6988 15.27579821 83099
Epoch: 15. Sept. 2025 • Age: 25 hours

Aktueller Status

Höhe 494.0 km
Geschwindigkeit 7.62 km/s
Subsatellitenpunkt -38.92°S, 25.29°E
Startdatum 25. März 2024
Alter 1.4 years
Typ internet

Technische Details

Klassifizierung Payload
Masse 730.00 kg
Trockenmasse 700.00 kg
Gesamtmasse 730.00 kg
Länge 0.30 m
Durchmesser 4.10 m
Spannweite 29.00 m
Form Box + pan
Hersteller SPXS
Bus-Typ Starlink V2M
Phasenstatus In Orbit
Besitzer/Staat SPXS/US

Große Konstellationen

Loading constellations...